RH
100 94 100 97 94 89 85 77 71 79 85 80 74 62 54 49 60 65 72 88 89 81 76 62 80 91 81 82 85 90 91 74 56 44 42 38 32 30 31 30 27 24 23
100 100 98 99 100 100 89 93 90 70 69 75 75 78 77 70 63 59 59 71 83 80 84 86 91 94 94 85 80 89 86 79 64 60 52 48 58 52 40 37 41 42 36
100 100 100 98 100 100 96 88 80 71 67 70 76 73 73 80 83 75 65 72 79 91 85 93 100 100 100 100 100 100 93 83 71 57 54 51 40 38 36 35 31 32 32
100 100 100 100 100 100 100 100 100 94 92 90 94 95 100 96 90 70 59 57 63 78 84 80 82 100 100 100 100 100 98 84 69 70 62 58 48 40 46 40 35 33 35
100 100 100 100 97 96 100 100 100 100 100 94 94 99 98 99 83 71 63 57 65 70 71 80 91 100 100 100 100 100 100 100 89 80 81 73 66 54 48 45 41 40 40
100 100 100 100 100 96 90 91 96 97 98 97 96 99 88 83 76 72 66 62 62 72 84 88 86 94 100 98 87 94 100 100 100 94 91 83 76 67 58 56 50 53 49
95 99 97 97 92 93 91 90 88 85 79 86 87 81 77 72 68 79 80 73 79 82 77 62 77 91 97 98 96 90 96 100 100 100 94 99 87 78 70 66 71 74 66
86 86 85 84 82 82 83 85 86 85 82 74 68 62 62 66 72 72 70 76 64 62 73 76 85 82 93 95 93 99 94 85 98 100 99 100 87 95 79 74 96 95 86
76 68 62 61 66 66 63 60 63 63 67 64 55 55 58 63 66 64 64 66 85 84 85 91 84 61 84 100 100 100 100 100 100 100 100 100 100 89 73 84 90 92 82
51 52 56 59 58 55 55 57 53 49 47 43 41 42 45 49 50 48 57 65 93 98 97 83 89 87 94 100 100 100 100 100 100 100 100 100 100 92 93 78 83 73 72
49 61 56 53 50 44 37 35 34 32 33 30 30 34 46 54 55 57 57 60 66 79 87 78 90 100 98 89 91 98 100 100 100 100 100 98 100 95 75 76 85 72 57
69 73 60 49 36 31 31 33 29 23 20 21 23 29 39 38 37 38 41 42 46 52 61 72 67 75 77 82 97 100 100 100 100 100 100 100 100 65 77 81 77 58 63
63 49 39 36 30 26 21 17 16 18 19 21 23 26 34 39 41 42 45 48 51 52 66 69 78 78 81 100 100 100 100 100 100 98 100 94 100 78 87 75 53 61 62
51 42 34 28 21 19 14 11 6 6 9 11 15 23 29 32 35 39 41 42 53 56 68 82 90 95 94 96 94 94 94 99 100 100 100 98 96 100 77 65 82 79 66
50 46 37 27 21 15 6 3 3 3 5 6 8 12 18 26 33 41 56 59 64 55 78 83 73 80 95 97 100 100 100 100 100 90 82 84 84 68 70 81 71 59 74
72 47 51 36 20 13 7 5 4 3 5 6 7 10 13 16 25 40 45 56 66 72 72 91 59 63 85 100 100 100 100 100 100 100 99 74 75 81 76 68 69 85 80
84 83 60 41 31 20 10 6 7 7 9 12 14 17 20 25 32 37 39 58 72 73 76 64 61 76 93 100 100 95 92 90 80 68 70 82 95 86 77 80 79 71 73
86 69 70 62 51 31 23 23 17 15 19 25 28 30 45 42 44 53 68 78 82 83 88 93 99 100 100 100 100 100 99 94 82 71 98 90 75 65 63 66 63 64 63
94 78 80 68 62 60 44 32 31 28 37 46 53 79 88 89 92 96 99 100 100 100 100 100 100 100 100 94 100 100 89 97 100 90 78 65 60 60 60 63 70 75 72
96 85 95 76 66 56 61 59 52 60 77 84 91 96 100 100 100 100 100 100 99 100 100 100 87 100 100 98 96 98 87 78 70 61 62 67 73 79 86 83 78 78 71
86 94 84 100 90 83 74 65 61 63 76 67 79 96 87 89 100 86 83 81 94 84 84 86 76 92 97 84 81 73 61 68 76 74 77 78 78 78 78 72 61 51 44
86 91 83 78 100 96 100 98 98 97 90 97 90 94 92 89 83 93 100 100 100 100 100 94 86 85 75 57 58 69 76 80 85 84 88 87 80 69 58 48 44 41 38
100 99 85 75 98 90 90 93 99 92 92 94 88 97 100 100 100 95 94 91 75 70 68 61 56 60 69 75 79 89 93 95 90 83 75 68 49 45 45 41 40 35 28
100 100 91 79 76 80 88 98 96 93 81 80 87 90 88 84 78 75 73 72 75 80 84 87 89 93 98 100 100 94 89 89 80 55 44 45 45 40 32 25 19 14 11
86 87 97 97 90 81 72 78 83 91 97 97 95 91 92 93 92 90 89 88 92 95 98 100 100 98 95 95 96 83 67 60 49 43 42 38 30 19 14 11 8 8 7
90 85 91 90 94 94 93 98 99 100 99 90 86 86 86 89 93 95 96 100 100 100 99 100 99 88 79 74 64 60 54 47 44 39 30 20 14 9 7 6 7 7 8
Wind_Speed
84 82 81 82 83 82 79 79 78 75 74 74 73 73 74 73 70 72 70 67 73 73 74 71 64 61 63 63 61 61 62 62 61 61 60 62 65 67 68 69 71 71 70
81 82 81 79 77 78 78 75 76 79 76 76 78 78 79 76 75 76 75 73 72 74 72 68 65 64 66 65 64 64 68 70 66 64 61 61 57 57 63 67 70 71 70
79 81 79 77 78 79 82 81 80 80 80 80 81 82 83 82 80 78 76 71 67 66 67 64 64 64 65 67 69 70 69 66 63 64 63 56 58 64 65 65 67 69 71
76 77 78 77 78 79 80 82 85 85 84 84 83 84 86 86 85 84 81 76 74 76 73 70 69 70 71 71 68 67 74 70 69 63 64 68 70 71 70 68 68 68 68
79 80 81 82 83 84 85 87 89 91 93 92 91 92 91 89 88 88 86 82 77 72 76 72 71 72 72 70 68 70 72 74 74 71 72 74 75 79 77 74 73 71 70
83 82 84 86 89 91 93 95 94 94 96 99 99 97 97 95 92 90 87 82 82 75 71 72 75 75 74 74 75 77 78 78 76 76 74 75 77 82 79 77 76 75 72
87 87 89 92 95 97 98 99 100 102 104 104 103 102 98 96 93 88 87 83 80 82 82 81 79 77 79 80 79 78 81 81 82 80 79 80 82 82 81 78 76 76 75
93 95 97 99 101 103 104 105 107 109 110 110 109 108 103 98 94 90 87 88 86 85 86 84 80 78 79 80 80 83 79 83 84 81 80 80 82 81 81 78 75 74 73
101 103 104 106 107 108 109 108 108 108 107 108 107 105 101 98 96 95 93 90 87 85 85 89 88 83 80 82 81 80 80 80 77 78 78 78 81 83 82 81 76 76 73
93 93 94 94 97 100 102 103 106 107 109 110 108 106 103 100 98 96 93 91 92 93 91 89 87 83 81 80 81 81 79 77 75 74 75 77 80 85 85 81 79 79 77
78 81 87 92 95 98 101 102 105 107 107 107 106 104 103 102 100 97 93 89 88 88 86 82 82 82 80 75 73 75 73 70 71 73 74 79 82 85 83 79 79 81 77
70 75 82 88 92 96 97 97 99 101 98 96 97 98 101 99 95 91 85 80 78 76 72 74 72 68 67 64 64 65 64 64 68 72 78 80 84 83 79 78 82 81 83
68 74 78 83 87 88 91 89 88 91 96 99 98 98 98 98 93 90 86 82 78 70 66 62 60 60 62 62 62 62 63 68 71 70 66 80 80 80 80 82 82 81 80
66 69 69 72 72 66 67 70 70 69 73 78 81 85 85 85 82 79 79 77 78 74 70 68 62 55 54 58 63 64 65 66 70 70 71 75 76 80 82 84 83 85 87
52 52 52 55 52 53 47 43 47 50 53 56 62 63 63 65 66 63 64 67 68 65 62 61 66 61 54 53 53 54 57 60 66 69 68 72 77 81 82 82 86 87 86
37 43 46 51 49 42 38 35 33 32 34 38 41 44 47 49 50 52 53 52 50 54 53 54 56 55 49 49 51 56 57 59 65 67 73 76 78 83 84 84 85 84 86
33 35 40 42 40 37 28 20 17 14 14 19 24 26 28 31 33 36 39 38 39 43 45 45 42 44 48 51 56 57 59 62 68 70 73 77 80 80 84 84 84 87 92
30 28 29 29 27 25 19 12 7 2 2 5 8 11 9 11 15 16 18 18 20 25 28 29 34 32 44 51 56 61 65 66 68 71 74 79 81 82 80 83 87 92 96
23 21 27 25 24 20 18 15 12 10 15 17 15 21 19 17 15 13 12 16 14 11 14 25 30 39 51 52 57 61 64 66 70 75 79 79 78 80 84 88 93 99 103
17 17 23 26 22 23 19 19 21 24 28 26 24 27 30 24 24 19 15 19 22 19 24 40 42 45 50 53 56 60 64 67 72 75 75 76 79 85 91 96 97 95 96
13 17 16 18 22 23 25 25 26 23 17 14 18 14 13 14 17 12 15 16 22 28 37 45 44 46 49 54 57 61 63 63 67 72 77 81 86 89 90 90 95 99 103
17 20 19 11 11 13 13 17 19 20 18 15 12 8 6 5 4 8 12 17 23 29 34 40 44 46 50 52 53 57 61 67 72 77 81 82 84 89 94 98 102 107 110
15 18 18 6 4 6 8 7 10 11 9 10 7 1 3 6 10 14 17 22 26 28 32 35 38 42 48 53 58 64 68 69 69 72 78 85 89 94 99 103 108 111 112
10 15 15 14 10 7 6 7 8 9 10 10 10 10 11 12 14 17 21 24 28 32 36 41 46 51 56 58 58 57 61 67 72 78 85 89 95 99 102 104 103 97 91
10 11 13 13 11 9 8 7 8 9 11 11 12 14 16 18 21 24 28 32 36 39 42 42 40 41 47 52 56 61 65 73 81 86 91 94 96 96 93 87 85 81 75
13 11 12 14 14 13 11 10 10 10 12 13 16 20 23 26 29 31 32 31 30 32 37 43 44 46 52 57 62 68 73 81 87 91 93 91 85 78 76 72 67 63 60
Wind_Direction
252 255 255 259 262 263 262 262 263 267 269 272 273 274 273 273 271 275 285 279 280 279 279 279 280 281 282 284 286 285 287 287 288 288 288 286 284 283 283 283 283 282 282
255 256 256 258 260 261 263 263 262 262 265 270 273 273 275 276 277 279 282 277 273 275 277 278 279 281 282 284 284 285 286 286 287 289 290 290 287 288 290 289 286 283 281
254 256 257 258 258 261 263 263 265 267 267 267 270 274 274 276 277 280 280 274 273 271 273 273 277 277 279 282 282 282 283 282 282 286 287 287 290 292 292 292 291 287 284
257 259 259 259 261 263 264 265 266 267 267 268 268 269 273 274 276 278 277 272 267 269 269 270 272 276 278 280 280 281 281 282 284 286 285 285 288 294 296 297 295 291 287
254 256 257 258 259 259 260 261 264 267 269 269 269 270 272 273 275 277 276 275 269 266 268 267 269 273 274 275 276 275 277 278 283 284 287 288 287 294 297 301 300 295 291
254 255 258 260 261 261 262 263 263 265 267 268 269 271 272 273 273 274 273 270 268 265 266 267 267 270 270 272 275 275 275 278 279 282 284 285 288 291 295 298 299 297 293
253 255 257 259 260 262 264 265 266 267 268 269 270 270 271 272 272 272 271 269 269 271 270 267 267 268 268 272 275 275 274 275 278 280 281 284 286 289 293 296 297 298 298
256 257 258 259 261 263 265 267 268 268 268 269 270 271 271 270 269 269 268 268 269 270 271 271 272 269 270 272 274 276 274 274 274 276 278 282 284 287 290 293 295 296 296
263 263 264 266 268 268 268 269 268 268 268 268 268 268 268 268 268 269 268 268 269 269 269 272 273 270 271 274 274 274 272 273 274 275 276 280 284 285 290 293 292 293 294
266 267 268 268 267 267 267 267 267 268 267 267 267 267 268 268 267 268 268 269 270 269 269 270 271 271 271 271 270 270 270 272 272 274 277 281 284 289 289 291 291 293 292
268 267 267 268 268 268 268 267 267 268 267 268 269 270 270 269 268 268 268 267 267 266 267 269 269 269 270 268 266 265 267 269 271 274 278 280 282 284 288 289 288 290 290
270 270 270 271 272 272 273 274 273 272 272 270 268 266 266 268 268 268 268 267 266 264 265 266 267 266 264 263 262 265 267 269 273 277 281 279 280 285 286 287 289 291 292
275 276 277 278 279 281 281 279 274 270 268 267 267 266 265 266 267 267 266 265 264 263 263 264 267 265 262 259 263 265 267 271 274 276 271 282 284 285 287 288 291 292 291
280 282 285 286 284 285 281 277 272 267 263 262 262 261 262 264 265 263 264 262 260 260 260 259 259 260 261 263 262 264 268 270 274 273 274 278 280 283 286 292 293 290 291
289 291 297 301 302 301 294 282 278 268 262 258 258 257 257 257 258 257 255 255 253 253 253 256 254 254 259 264 262 265 269 271 272 277 277 278 281 285 291 289 289 292 295
307 306 316 312 314 314 307 299 288 267 259 255 251 250 249 250 249 247 246 244 243 242 242 249 253 249 252 259 263 265 269 272 272 274 277 283 287 289 289 292 294 295 295
310 318 318 319 326 325 317 309 301 275 256 248 245 242 244 244 243 234 230 231 237 242 248 256 249 242 248 257 264 266 267 270 273 279 284 288 290 290 291 292 293 295 296
310 317 335 338 342 346 346 347 3 34 141 179 208 198 179 216 217 213 219 231 242 247 245 240 239 245 252 253 257 266 274 279 279 284 288 287 287 287 290 293 295 297 298
310 322 349 354 357 17 20 40 60 82 98 95 105 102 102 100 108 120 145 161 176 215 236 235 239 242 245 260 267 273 281 285 285 285 285 287 289 292 295 298 299 298 298
310 329 342 348 356 9 31 44 56 75 89 96 104 113 109 109 118 123 150 193 190 210 235 235 240 247 253 264 272 274 277 281 284 284 290 295 295 295 295 295 295 295 296
293 321 329 329 349 9 18 30 37 53 69 79 95 94 103 132 147 171 187 223 227 228 229 233 254 263 267 270 276 279 283 288 292 294 295 295 295 295 295 296 297 297 297
299 312 317 336 326 10 11 23 29 36 47 48 47 56 17 354 286 235 243 263 266 262 259 261 267 269 273 279 284 289 293 294 295 296 297 297 297 297 298 298 298 298 298
294 302 316 313 275 332 356 354 353 1 20 28 42 246 262 278 284 283 277 273 273 269 270 275 280 287 292 295 296 296 296 298 299 297 297 297 297 300 300 299 297 296 296
284 294 315 335 358 348 359 338 340 341 4 12 358 341 328 318 309 305 304 304 303 298 295 296 297 296 296 297 299 301 300 299 298 297 300 301 300 299 297 295 295 296 297
298 294 298 307 320 327 333 340 340 339 333 327 320 316 314 313 310 305 299 296 295 297 298 299 300 300 301 302 302 301 301 301 301 301 302 302 300 298 298 298 298 299 299
291 285 279 282 289 296 303 307 304 304 311 319 325 322 316 308 305 304 306 307 307 305 301 301 303 302 302 303 304 304 304 306 304 305 305 302 302 302 301 300 301 302 303